Weather History for KELM - November, 2012

Change the Weather History Date:

Thursday, November 29, 2012

  Actual Average Record
Temperature  
Mean Temperature 34 °F -  
Max Temperature 46 °F 47 °F 73 °F (1990)
Min Temperature 21 °F 29 °F 8 °F (1930)
Degree Days  
Heating Degree Days 30    
Moisture  
Dew Point 22 °F    
Average Humidity 64    
Maximum Humidity 88    
Minimum Humidity 33    
Precipitation  
Precipitation 0.00 in - - ()
Sea Level Pressure  
Sea Level Pressure 30.27 in    
Wind  
Wind Speed 5 mph (WSW)    
Max Wind Speed 16 mph    
Max Gust Speed 23 mph    
Visibility 10 miles    
Events      
Averages and records for this station are not official NWS values.
T = Trace of Precipitation, MM = Missing Value Source: NWS Daily Summary

Daily Weather History Graph

Daily Weather History Graph

Search for Another Location

Airport or City:

Trip Planner

Search our weather history database for the weather conditions in past years. The results will help you decide how hot, cold, wet, or windy it might be!

Date:

Astronomy

Nov. 29, 2012 Rise Set
Actual Time 7:14 AM EST 4:37 PM EST
Civil Twilight 6:43 AM EST 5:08 PM EST
Nautical Twilight 6:08 AM EST 5:42 PM EST
Astronomical Twilight 5:35 AM EST 6:16 PM EST
Moon 5:38 PM EST (11/29) 8:00 AM EST (11/29)
Length of Visible Light 10h 24m
Length of Day
9h 22m
Full, 99% of the Moon is Illuminated
Nov 29
Full
Dec 6
Last Quarter
Dec 13
New
Dec 20
First Quarter
Dec 28
Full

Hourly Weather History & Observations

Time (EST) Temp. Windchill Dew Point Humidity Pressure Visibility Wind Dir Wind Speed Gust Speed Precip Events Conditions
12:53 AM 33.1 °F 30.0 °F 25.0 °F 72% 30.27 in 10.0 mi SW 3.5 mph - N/A   Overcast
1:53 AM 30.9 °F 27.5 °F 25.0 °F 79% 30.28 in 10.0 mi WSW 3.5 mph - N/A   Overcast
2:53 AM 30.9 °F - 25.0 °F 79% 30.28 in 10.0 mi Calm Calm - N/A   Overcast
3:53 AM 28.9 °F - 25.0 °F 85% 30.27 in 10.0 mi Calm Calm - N/A   Overcast
4:53 AM 26.1 °F - 23.0 °F 88% 30.27 in 10.0 mi Calm Calm - N/A   Clear
5:53 AM 28.9 °F 21.9 °F 23.0 °F 78% 30.28 in 10.0 mi WSW 6.9 mph - N/A   Clear
6:53 AM 32.0 °F 25.6 °F 24.1 °F 73% 30.29 in 10.0 mi WSW 6.9 mph - N/A   Clear
7:53 AM 32.0 °F 26.4 °F 23.0 °F 69% 30.30 in 10.0 mi WSW 5.8 mph - N/A   Clear
8:53 AM 34.0 °F 28.0 °F 23.0 °F 64% 30.31 in 10.0 mi WSW 6.9 mph - N/A   Clear
9:53 AM 37.9 °F 31.5 °F 24.1 °F 57% 30.31 in 10.0 mi WSW 9.2 mph - N/A   Clear
10:53 AM 39.9 °F 31.8 °F 24.1 °F 53% 30.30 in 10.0 mi WSW 15.0 mph 23.0 mph N/A   Clear
11:53 AM 43.0 °F 36.0 °F 25.0 °F 49% 30.27 in 10.0 mi West 13.8 mph 19.6 mph N/A   Clear
12:53 PM 44.1 °F 37.1 °F 24.1 °F 45% 30.25 in 10.0 mi WSW 15.0 mph - N/A   Clear
1:53 PM 46.0 °F 40.2 °F 21.9 °F 39% 30.22 in 10.0 mi West 12.7 mph - N/A   Clear
2:53 PM 46.0 °F 39.3 °F 18.0 °F 33% 30.22 in 10.0 mi WSW 16.1 mph - N/A   Clear
3:53 PM 45.0 °F 39.3 °F 17.1 °F 33% 30.22 in 10.0 mi WSW 11.5 mph - N/A   Clear
4:53 PM 39.9 °F 35.1 °F 17.1 °F 40% 30.23 in 10.0 mi WSW 6.9 mph - N/A   Clear
5:53 PM 34.0 °F 31.0 °F 18.0 °F 52% 30.24 in 10.0 mi WSW 3.5 mph - N/A   Clear
6:53 PM 32.0 °F 27.5 °F 19.0 °F 59% 30.26 in 10.0 mi WSW 4.6 mph - N/A   Clear
7:53 PM 28.9 °F 25.2 °F 19.9 °F 69% 30.27 in 10.0 mi West 3.5 mph - N/A   Clear
8:53 PM 25.0 °F - 18.0 °F 75% 30.29 in 10.0 mi Calm Calm - N/A   Clear
9:53 PM 27.0 °F - 19.0 °F 72% 30.30 in 10.0 mi Calm Calm - N/A   Clear
10:53 PM 23.0 °F - 19.0 °F 85% 30.30 in 10.0 mi Calm Calm - N/A   Clear
11:53 PM 21.9 °F - 18.0 °F 85% 30.30 in 10.0 mi Calm Calm - N/A   Clear